Location: Pl�tzky
(52.0521°N, 11.8020°E)
Time: 07:37:09
(UTC+00:00)

NOSS 2-3 (C) - Pass Details

Date: 22 November 2019
Orbit: 594 x 1618 km, 63.4° (Epoch: 04 December)

Event Time Altitude Azimuth Distance (km) Brightness Sun altitude
Rises 17:18:18 0° 235° (SW) 2,892 8.1 -18.7°
Reaches altitude 10° 17:20:25 10° 239° (WSW) 2,047 7.2 -19.0°
Maximum altitude 17:24:57 65° 322° (NW) 802 4.1 -19.7°
Enters shadow 17:27:47 28° 36° (NE) 1,468 5.1 -20.1°
